Regional Weather Roundup
Issued by NWS Boston, MA

Home | Current Version | Previous Version | Text Only | Print | Product List | Glossary On
Versions: 1 2 3 4 5 6 7 8 9 10 11 12 13 14 15 16 17 18 19 20 21 22 23 24 25 26 27 28 29 30 31 32 33 34 35 36 37 38 39 40 41 42 43 44 45 46 47 48 49 50
000
ASUS41 KBOX 021510
RWRBOX

REGIONAL WEATHER ROUNDUP
NATIONAL WEATHER SERVICE TAUNTON MA
1100 AM EDT SUN AUG 02 2015

NOTE:  "FAIR" INDICATES FEW OR NO CLOUDS BELOW 12,000 FEET WITH NO
SIGNIFICANT WEATHER AND/OR OBSTRUCTIONS TO VISIBILITY.  THE FOLLOWING
OBSERVATION LOCATIONS DO NOT REPORT PRESENT WEATHER...PROVINCETOWN...
SMITHFIELD...BLOCK ISLAND...KEENE...AND OXFORD.

MAZALL-021600-
EASTERN MASSACHUSETTS

CITY           SKY/WX    TMP DP  RH WIND       PRES   REMARKS
BOSTON         SUNNY     81  52  36 VRB7      29.90R
BEVERLY        SUNNY     80  55  42 W8        29.88S
LAWRENCE       SUNNY     79  56  45 W10G17    29.91R
BEDFORD        SUNNY     80  53  39 W9        29.89S
BLUE HILL        N/A     78  55  44 W9        29.92R
NORWOOD        SUNNY     80  58  46 SW8       29.90S
MARSHFIELD     SUNNY     81  55  41 W3        29.91S
PLYMOUTH       SUNNY     83  54  36 SW9G16    29.91S
TAUNTON        SUNNY     82  56  40 W6        29.91R
NEW BEDFORD    SUNNY     81  54  39 W7        29.91R
$$

MAZALL-021600-
CAPE COD AND THE ISLANDS

CITY           SKY/WX    TMP DP  RH WIND       PRES   REMARKS
FALMOUTH       SUNNY     81  55  41 W9        29.92R
HYANNIS        SUNNY     82  53  36 VRB6      29.90R
CHATHAM        SUNNY     83  51  33 W6        29.92R
PROVINCETOWN   SUNNY     75  55  50 W6        29.91S
NANTUCKET      SUNNY     82  56  40 NW9       29.92R
MARTHAS VNYRD  SUNNY     81  54  39 W6        29.92R
$$

MAZALL-021600-
CENTRAL AND WESTERN MASSACHUSETTS

CITY           SKY/WX    TMP DP  RH WIND       PRES   REMARKS
WORCESTER      SUNNY     76  55  48 W9        29.95R
FITCHBURG      SUNNY     79  56  45 SW8       29.91S
ORANGE         SUNNY     77  54  44 VRB5      29.92R
SPRINGFIELD    SUNNY     78  59  52 VRB6      29.91S
WESTFIELD      SUNNY     78  59  51 S8        29.92S
NORTH ADAMS    SUNNY     76  59  55 VRB5      29.92S
PITTSFIELD     SUNNY     74  57  55 VRB6      29.93S
$$

RIZALL-021600-
RHODE ISLAND

CITY           SKY/WX    TMP DP  RH WIND       PRES   REMARKS
PROVIDENCE     SUNNY     82  55  39 SW6       29.92S
NEWPORT        SUNNY     79  56  45 CALM      29.93R
BLOCK ISLAND     N/A     82  55  39 W7        29.95R
SMITHFIELD     SUNNY     79  57  47 SW6       29.93S
WESTERLY       SUNNY     78  56  46 SW8       29.94R
$$

CTZALL-021600-
CONNECTICUT

CITY           SKY/WX    TMP DP  RH WIND       PRES   REMARKS
BRADLEY INTL   MOSUNNY   80  59  48 S8        29.91S
HARTFORD       SUNNY     81  55  40 VRB5      29.92S
BRIDGEPORT     SUNNY     80  62  54 SW7       29.94R
DANBURY        SUNNY     79  56  45 SW13      29.96R
GROTON         SUNNY     76  55  48 SW7       29.93R
NEW HAVEN      SUNNY     78  59  51 S8        29.94R
CHESTER        NOT AVBL
MERIDEN        SUNNY     81  56  42 VRB7      29.93S
WILLIMANTIC    SUNNY     81  54  39 SW8       29.93S
OXFORD         MOSUNNY   77  57  50 S5        29.98R
$$

MEZ002-015-021-024-NHZ003-005-008-011-012-014-VTZ005-008-021600-
NORTHERN NEW ENGLAND

CITY           SKY/WX    TMP DP  RH WIND       PRES   REMARKS
PORTLAND ME    MOSUNNY   78  55  44 W10       29.87R
BANGOR ME      MOSUNNY   77  57  50 NW6       29.85S
CONCORD NH     SUNNY     78  54  43 VRB6      29.89R
MANCHESTER NH  SUNNY     79  55  43 W6        29.88R
NASHUA NH      SUNNY     79  57  46 W9G18     29.90S
PORTSMOUTH NH  MOSUNNY   79  56  45 W7        29.87S
JAFFREY NH     SUNNY     75  55  49 VRB6      29.94R
KEENE NH       SUNNY     75  54  46 SW6       29.92S
BURLINGTON VT  MOSUNNY   76  57  51 S12       29.86S
MT. WASHINGTON FOG       46  46 100 W25         N/A  VSB 1/16
$$

NYZ052-076-021600-
EASTERN NEW YORK

CITY           SKY/WX    TMP DP  RH WIND       PRES   REMARKS
ALBANY         MOSUNNY   78  57  48 CALM      29.91R
NEW YORK CITY  MOSUNNY   84  51  31 SW6       29.93R
$$

ANZALL-021600-
MARINE OBSERVATIONS

STATION/POSITION TIME  TEMP    WIND        PRES    VSBY  WAVE
                       AIR SEA DIR/SP/G                  HT/PER
                 (UTC) (F)     (DEG/KT/KT) (MB)    (MI)  (FT/S)
BOSTON BUOY      1450   71 70  240/  6/  6 1012.7R         2/ 8
BUZZARDS BAY     1400          260/  9/  9 1014.0R
NANTUCKET SOUND  1450   75 75  270/  8/  8 1012.7R         1/ 5
MASS BAY-STELLWA 1404   69 67  230/  8/  8   N/A    1 7/8  2/ 8
ISLE OF SHOALS   1400   68     190/  3/  4 1011.3R
S OF BLOCK IS    1408      75                N/A           4/ 8
$$

......................KEY.........................
  SKY/WX - SKY CONDITION/PRESENT WEATHER
  TMP    - TEMPERATURE IN FAHRENHEIT
  DWPT   - DEWPOINT IN FAHRENHEIT
  RH     - RELATIVE HUMIDITY IN PERCENT
  WIND   - DIRECTION AND SPEED IN MPH
  PRES   - MEAN SEA LEVEL PRESSURE IN INCHES OF HG
  WCI    - WIND CHILL INDEX
  VSB    - VISIBILITY IN MILES
  HX     - HEAT INDEX
  TC     - TEMPERATURE IN CELSIUS
  VRB    - VARIABLE WIND DIRECTION
  N/A    - NOT AVAILABLE



USA.gov is the U.S. government's official web portal to all federal, state and local government web resources and services.